Date String (YYYY-MM-DD hh:mm:ss) UTC,Instrument flags,absolute air pressure of the measurement (hPa),sample flow rate (lpm),inlet stack bypass flow (lpm),air temperature of the measurement (°C),ambient temperature measured by the external sensor (°C),aerosol sample conditioner tube jacket temperature (°C),OPC LED temperature (°C),internal box temperature (°C),relative humidity of the measurement (%),span deviation,mass concentration of particles derived from Lorenz-Mie calculation of OPC scattering (μg/m³),mass concentration of particles derived from Lorenz-Mie calculation of OPC scattering (μg/m³),mass concentration of particles derived from Lorenz-Mie calculation of OPC scattering (μg/m³)
DateTimeUTC,F1_M11,P_M11,Q1_M11,Q2_M11,T1_M11,T2_M11,T3_M11,T4_M11,T5_M11,U1_M11,ZSPAN_M11,X2_M11,X0_M11,X1_M11
2023-09-03 20:00:00,SystemResetWarning,0830.6,5.00,000.00,027.6,024.3,000.0,035.8,028.8,29.8,0000.0,0003.63,0010.83,0003.18
2023-09-03 20:01:00,SystemResetWarning,0830.7,5.00,000.00,027.5,024.3,000.0,035.7,028.8,30.7,0000.0,0003.64,0010.92,0003.19
2023-09-03 20:02:00,SystemResetWarning,0830.4,5.01,000.00,027.4,024.6,000.0,035.7,028.8,31.5,0000.0,0003.65,0011.27,0003.19
2023-09-03 20:03:00,SystemResetWarning,0830.5,5.00,000.00,027.4,025.0,000.0,035.8,028.9,31.7,0000.0,0003.64,0011.42,0003.19
2023-09-03 20:04:00,SystemResetWarning,0830.4,5.00,000.00,027.5,025.4,000.0,035.8,029.1,32.0,0000.0,0003.65,0010.78,0003.19
2023-09-03 20:05:00,SystemResetWarning,0830.5,5.00,000.00,027.5,025.8,000.0,035.8,029.2,30.9,0000.0,0003.68,0010.35,0003.20
2023-09-03 20:06:00,SystemResetWarning,0830.4,5.01,000.00,027.6,026.1,000.0,035.8,029.4,31.5,0000.0,0003.69,0010.33,0003.20
2023-09-03 20:07:00,SystemResetWarning,0830.4,5.00,000.00,027.7,026.3,000.0,035.9,029.4,33.3,0000.0,0003.69,0009.53,0003.21
2023-09-03 20:08:00,SystemResetWarning,0830.3,4.98,000.00,027.6,025.4,000.0,035.8,029.1,31.3,0000.0,0003.70,0009.51,0003.21
2023-09-03 20:09:00,SystemResetWarning,0830.2,5.00,000.00,027.5,024.3,000.0,035.8,028.7,32.1,0000.0,0003.69,0009.67,0003.21
2023-09-03 20:10:00,SystemResetWarning,0830.2,5.01,000.00,027.5,024.1,000.0,035.7,028.7,35.7,0000.0,0003.70,0009.34,0003.21
2023-09-03 20:11:00,SystemResetWarning,0830.2,5.02,000.00,027.5,024.4,000.0,035.7,028.8,33.6,0000.0,0003.72,0008.60,0003.22
2023-09-03 20:12:00,SystemResetWarning,0830.1,4.97,000.00,027.7,024.8,000.0,035.7,029.0,31.6,0000.0,0003.73,0008.60,0003.23
2023-09-03 20:13:00,SystemResetWarning,0830.1,5.01,000.00,027.8,025.2,000.0,035.8,029.1,31.8,0000.0,0003.70,0008.26,0003.24
2023-09-03 20:14:00,SystemResetWarning,0830.1,5.01,000.00,027.9,025.6,000.0,035.8,029.3,31.4,0000.0,0003.73,0008.09,0003.24
2023-09-03 20:15:00,SystemResetWarning,0830.0,5.00,000.00,028.0,026.0,000.0,035.9,029.4,31.4,0000.0,0003.73,0008.11,0003.25
2023-09-03 20:16:00,SystemResetWarning,0830.0,5.00,000.00,028.1,026.3,000.0,036.0,029.5,31.6,0000.0,0003.75,0008.00,0003.27
2023-09-03 20:17:00,SystemResetWarning,0829.9,5.00,000.00,028.1,026.5,000.0,036.0,029.6,31.1,0000.0,0003.74,0007.92,0003.29
2023-09-03 20:18:00,SystemResetWarning,0829.8,4.99,000.00,028.2,025.7,000.0,036.0,029.3,31.0,0000.0,0003.74,0007.88,0003.30
2023-09-03 20:19:00,SystemResetWarning,0829.8,5.00,000.00,028.0,024.6,000.0,036.0,028.8,30.6,0000.0,0003.73,0007.68,0003.31
2023-09-03 20:20:00,SystemResetWarning,0829.7,5.02,000.00,028.0,024.3,000.0,036.0,028.8,30.4,0000.0,0003.78,0007.68,0003.33
2023-09-03 20:21:00,SystemResetWarning,0829.8,5.00,000.00,027.9,024.6,000.0,036.0,028.9,30.5,0000.0,0003.83,0007.50,0003.35
2023-09-03 20:22:00,SystemResetWarning,0829.8,5.00,000.00,027.9,025.0,000.0,036.0,029.0,30.8,0000.0,0003.84,0007.46,0003.36
2023-09-03 20:23:00,SystemResetWarning,0829.8,5.00,000.00,027.9,025.4,000.0,036.0,029.2,31.1,0000.0,0003.86,0007.50,0003.36
2023-09-03 20:24:00,SystemResetWarning,0829.8,5.00,000.00,028.0,025.8,000.0,036.1,029.3,30.6,0000.0,0003.87,0007.57,0003.35
2023-09-03 20:25:00,SystemResetWarning,0829.8,5.00,000.00,028.0,026.2,000.0,036.1,029.4,30.3,0000.0,0003.85,0007.45,0003.35
2023-09-03 20:26:00,SystemResetWarning,0829.8,5.00,000.00,028.1,026.4,000.0,036.1,029.5,29.6,0000.0,0003.82,0007.25,0003.36
2023-09-03 20:27:00,SystemResetWarning,0829.7,4.99,000.00,028.1,025.8,000.0,036.1,029.3,29.1,0000.0,0003.82,0007.33,0003.34
2023-09-03 20:28:00,SystemResetWarning,0829.7,4.99,000.00,028.0,024.6,000.0,036.1,028.8,29.6,0000.0,0003.81,0007.39,0003.34
2023-09-03 20:29:00,SystemResetWarning,0829.7,5.00,000.00,027.9,024.3,000.0,036.0,028.8,29.8,0000.0,0003.82,0007.90,0003.34
2023-09-03 20:30:00,SystemResetWarning,0829.7,5.01,000.00,027.8,024.6,000.0,036.0,028.9,29.7,0000.0,0003.81,0007.75,0003.35
2023-09-03 20:31:00,SystemResetWarning,0829.7,5.01,000.00,027.8,025.0,000.0,036.0,029.0,29.3,0000.0,0003.77,0007.62,0003.34
2023-09-03 20:32:00,SystemResetWarning,0829.7,4.99,000.00,027.8,025.4,000.0,036.1,029.2,29.3,0000.0,0003.74,0007.59,0003.31
2023-09-03 20:33:00,SystemResetWarning,0829.7,5.00,000.00,027.9,025.8,000.0,036.1,029.3,29.4,0000.0,0003.69,0007.60,0003.28
2023-09-03 20:34:00,SystemResetWarning,0829.7,5.00,000.00,027.9,026.2,000.0,036.1,029.4,29.1,0000.0,0003.66,0007.59,0003.25
2023-09-03 20:35:00,SystemResetWarning,0829.7,5.00,000.00,028.0,026.5,000.0,036.1,029.5,29.0,0000.0,0003.62,0007.51,0003.23
2023-09-03 20:36:00,SystemResetWarning,0829.7,4.99,000.00,028.0,025.9,000.0,036.1,029.3,29.1,0000.0,0003.60,0007.46,0003.20
2023-09-03 20:37:00,SystemResetWarning,0829.6,5.00,000.00,027.9,024.6,000.0,036.0,028.8,29.9,0000.0,0003.60,0007.48,0003.17
2023-09-03 20:38:00,SystemResetWarning,0829.5,5.01,000.00,027.8,024.3,000.0,036.0,028.8,30.4,0000.0,0003.59,0007.48,0003.15
2023-09-03 20:39:00,SystemResetWarning,0829.4,5.01,000.00,027.7,024.5,000.0,036.0,028.9,30.2,0000.0,0003.55,0007.35,0003.11
2023-09-03 20:40:00,SystemResetWarning,0829.3,4.98,000.00,027.7,024.9,000.0,036.0,029.0,29.6,0000.0,0003.48,0006.34,0003.06
2023-09-03 20:41:00,SystemResetWarning,0829.3,5.00,000.00,027.7,025.4,000.0,036.0,029.2,29.7,0000.0,0003.44,0005.74,0003.01
2023-09-03 20:42:00,SystemResetWarning,0829.3,5.00,000.00,027.8,025.8,000.0,036.0,029.3,29.4,0000.0,0003.47,0005.92,0003.00
2023-09-03 20:43:00,SystemResetWarning,0829.3,5.01,000.00,027.8,026.1,000.0,036.0,029.4,29.1,0000.0,0003.51,0006.32,0003.02
2023-09-03 20:44:00,SystemResetWarning,0829.3,4.99,000.00,027.9,026.5,000.0,036.1,029.5,29.2,0000.0,0003.54,0006.45,0003.06
2023-09-03 20:45:00,SystemResetWarning,0829.4,4.98,000.00,027.9,026.0,000.0,036.1,029.4,29.3,0000.0,0003.57,0006.39,0003.10
2023-09-03 20:46:00,SystemResetWarning,0829.2,5.01,000.00,027.8,024.7,000.0,036.0,028.9,29.4,0000.0,0003.58,0006.37,0003.12
2023-09-03 20:47:00,SystemResetWarning,0829.1,5.01,000.00,027.7,024.2,000.0,035.9,028.8,29.7,0000.0,0003.59,0006.37,0003.12
2023-09-03 20:48:00,SystemResetWarning,0829.1,4.99,000.00,027.6,024.5,000.0,035.9,028.8,29.9,0000.0,0003.58,0006.36,0003.11
2023-09-03 20:49:00,SystemResetWarning,0829.1,5.00,000.00,027.6,024.8,000.0,035.9,028.9,30.0,0000.0,0003.57,0006.29,0003.11
2023-09-03 20:50:00,SystemResetWarning,0829.1,5.00,000.00,027.7,025.3,000.0,035.9,029.1,29.8,0000.0,0003.58,0006.27,0003.11
2023-09-03 20:51:00,SystemResetWarning,0829.2,5.00,000.00,027.7,025.7,000.0,036.0,029.3,29.9,0000.0,0003.59,0006.41,0003.10
2023-09-03 20:52:00,SystemResetWarning,0829.2,5.01,000.00,027.8,026.1,000.0,036.0,029.4,30.1,0000.0,0003.60,0006.56,0003.08
2023-09-03 20:53:00,SystemResetWarning,0829.2,5.00,000.00,027.8,026.4,000.0,036.0,029.5,30.0,0000.0,0003.57,0006.46,0003.02
2023-09-03 20:54:00,SystemResetWarning,0829.2,4.99,000.00,027.9,026.0,000.0,036.0,029.4,29.6,0000.0,0003.50,0005.98,0002.95
2023-09-03 20:55:00,SystemResetWarning,0829.2,5.00,000.00,027.7,024.7,000.0,035.9,028.9,29.7,0000.0,0003.44,0005.84,0002.88
2023-09-03 20:56:00,SystemResetWarning,0829.1,5.00,000.00,027.6,024.2,000.0,035.9,028.8,29.7,0000.0,0003.43,0006.05,0002.79
2023-09-03 20:57:00,SystemResetWarning,0829.2,5.01,000.00,027.6,024.4,000.0,035.9,028.8,29.8,0000.0,0003.39,0006.10,0002.71
2023-09-03 20:58:00,SystemResetWarning,0829.2,5.01,000.00,027.6,024.8,000.0,035.9,028.9,29.8,0000.0,0003.38,0006.67,0002.69
2023-09-03 20:59:00,SystemResetWarning,0829.3,5.00,000.00,027.6,025.2,000.0,035.9,029.1,29.9,0000.0,0003.38,0006.67,0002.68
